This demonstration page uses our WeatherBlox Daily Observations layout. Learn more.

Left ArrowRight Arrow

31.31129, -92.44514

Hourly Observations for October 3, 2015

Temp ( °F °C ) Dew Point ( °F °C ) Humidity (%) Winds ( mph kmh ) Pressure ( in mb ) Visibility ( mi km ) Precip ( " mm )
2:53 am 02:53 Clear 56 13.3 51 10.6 84 84 NNW 6 9 29.85 1011 10 16 0.00 0.00
4:53 am 04:53 Clear 54 12.2 51 10.6 90 90 NNW 6 9 29.86 1011 10 16 0.00 0.00
5:53 am 05:53 Clear 55 12.8 51 10.6 87 87 NNW 6 9 29.86 1011 10 16 0.00 0.00
6:53 am 06:53 Clear 54 12.2 51 10.6 90 90 NNW 5 7 29.87 1011 10 16 0.00 0.00
7:53 am 07:53 Sunny 56 13.3 52 11.1 87 87 NNW 7 11 29.86 1011 8 13 0.00 0.00
8:53 am 08:53 Sunny 62 16.7 53 11.7 73 73 N 8 13 29.88 1012 10 16 0.00 0.00
9:53 am 09:53 Sunny 68 20 53 11.7 59 59 N 12 19 29.88 1012 10 16 0.00 0.00
10:53 am 10:53 Sunny 70 21.1 52 11.1 53 53 N 12 19 29.87 1012 10 16 0.00 0.00
11:53 am 11:53 Sunny 73 22.8 52 11.1 48 48 VRB 7 11 29.85 1011 10 16 0.00 0.00
12:53 pm 12:53 Sunny 75 23.9 52 11.1 45 45 NNW 13 20 29.84 1011 10 16 0.00 0.00
1:53 pm 13:53 Mostly Sunny 76 24.4 52 11.1 43 43 NW 13 20 29.82 1010 10 16 0.00 0.00
2:53 pm 14:53 Sunny 76 24.4 52 11.1 43 43 N 9 15 29.80 1009 10 16 0.00 0.00
3:53 pm 15:53 Sunny 77 25 52 11.1 42 42 N 9 15 29.80 1009 10 16 0.00 0.00
4:53 pm 16:53 Sunny 77 25 52 11.1 42 42 N 12 19 29.80 1009 10 16 0.00 0.00
5:53 pm 17:53 Sunny 74 23.3 51 10.6 45 45 N 13 20 29.80 1009 10 16 0.00 0.00
6:53 pm 18:53 Sunny 69 20.6 52 11.1 55 55 N 5 7 29.83 1010 10 16 0.00 0.00
7:53 pm 19:53 Clear 65 18.3 52 11.1 63 63 ENE 6 9 29.84 1011 10 16 0.00 0.00
8:53 pm 20:53 Clear 63 17.2 52 11.1 68 68 ENE 5 7 29.88 1012 10 16 0.00 0.00
9:53 pm 21:53 Clear 61 16.1 51 10.6 70 70 NE 8 13 29.90 1012 10 16 0.00 0.00
10:53 pm 22:53 Clear 60 15.6 49 9.4 67 67 NNE 14 22 29.91 1013 10 16 0.00 0.00
11:53 pm 23:53 Clear 58 14.4 49 9.4 72 72 NNE 7 11 29.92 1013 10 16 0.00 0.00

Powered by AerisWeather